Year,Month,Day,Hour,Minute,Value (Times are PST for temperature in C)
2017,01,03,00,00,-1.40
2017,01,03,00,01,-1.40
2017,01,03,00,02,-1.40
2017,01,03,00,03,-1.40
2017,01,03,00,04,-1.30
2017,01,03,00,05,-1.30
2017,01,03,00,06,-1.30
2017,01,03,00,07,-1.30
2017,01,03,00,08,-1.30
2017,01,03,00,09,-1.30
2017,01,03,00,10,-1.20
2017,01,03,00,11,-1.20
2017,01,03,00,12,-1.20
2017,01,03,00,13,-1.20
2017,01,03,00,14,-1.20
2017,01,03,00,15,-1.20
2017,01,03,00,16,-1.20
2017,01,03,00,17,-1.20
2017,01,03,00,18,-1.20
2017,01,03,00,19,-1.20
2017,01,03,00,20,-1.20
2017,01,03,00,21,-1.20
2017,01,03,00,22,-1.20
2017,01,03,00,23,-1.20
2017,01,03,00,24,-1.20
2017,01,03,00,25,-1.20
2017,01,03,00,26,-1.20
2017,01,03,00,27,-1.20
2017,01,03,00,28,-1.20
2017,01,03,00,29,-1.20
2017,01,03,00,30,-1.20
2017,01,03,00,31,-1.20
2017,01,03,00,32,-1.20
2017,01,03,00,33,-1.20
2017,01,03,00,34,-1.20
2017,01,03,00,35,-1.20
2017,01,03,00,36,-1.20
2017,01,03,00,37,-1.20
2017,01,03,00,38,-1.30
2017,01,03,00,39,-1.30
2017,01,03,00,40,-1.30
2017,01,03,00,41,-1.30
2017,01,03,00,42,-1.30
2017,01,03,00,43,-1.30
2017,01,03,00,44,-1.30
2017,01,03,00,45,-1.40
2017,01,03,00,46,-1.40
2017,01,03,00,47,-1.40
2017,01,03,00,48,-1.40
2017,01,03,00,49,-1.40
2017,01,03,00,50,-1.40
2017,01,03,00,51,-1.40
2017,01,03,00,52,-1.40
2017,01,03,00,53,-1.40
2017,01,03,00,54,-1.40
2017,01,03,00,55,-1.40
2017,01,03,00,56,-1.40
2017,01,03,00,57,-1.30
2017,01,03,00,58,-1.30
2017,01,03,00,59,-1.30
2017,01,03,01,00,-1.30
2017,01,03,01,01,-1.30
2017,01,03,01,02,-1.30
2017,01,03,01,03,-1.30
2017,01,03,01,04,-1.40
2017,01,03,01,05,-1.40
2017,01,03,01,06,-1.40
2017,01,03,01,07,-1.30
2017,01,03,01,08,-1.30
2017,01,03,01,09,-1.30
2017,01,03,01,10,-1.30
2017,01,03,01,11,-1.30
2017,01,03,01,12,-1.30
2017,01,03,01,13,-1.30
2017,01,03,01,14,-1.30
2017,01,03,01,15,-1.30
2017,01,03,01,16,-1.30
2017,01,03,01,17,-1.20
2017,01,03,01,18,-1.20
2017,01,03,01,19,-1.20
2017,01,03,01,20,-1.20
2017,01,03,01,21,-1.20
2017,01,03,01,22,-1.10
2017,01,03,01,23,-1.10
2017,01,03,01,24,-1.10
2017,01,03,01,25,-1.20
2017,01,03,01,26,-1.20
2017,01,03,01,27,-1.20
2017,01,03,01,28,-1.20
2017,01,03,01,29,-1.20
2017,01,03,01,30,-1.20
2017,01,03,01,31,-1.20
2017,01,03,01,32,-1.20
2017,01,03,01,33,-1.20
2017,01,03,01,34,-1.20
2017,01,03,01,35,-1.20
2017,01,03,01,36,-1.30
2017,01,03,01,37,-1.30
2017,01,03,01,38,-1.30
2017,01,03,01,39,-1.30
2017,01,03,01,40,-1.30
2017,01,03,01,41,-1.30
2017,01,03,01,42,-1.30
2017,01,03,01,43,-1.30
2017,01,03,01,44,-1.20
2017,01,03,01,45,-1.20
2017,01,03,01,46,-1.20
2017,01,03,01,47,-1.20
2017,01,03,01,48,-1.40
2017,01,03,01,49,-1.50
2017,01,03,01,50,-1.60
2017,01,03,01,51,-1.60
2017,01,03,01,52,-1.50
2017,01,03,01,53,-1.50
2017,01,03,01,54,-1.40
2017,01,03,01,55,-1.40
2017,01,03,01,56,-1.30
2017,01,03,01,57,-1.30
2017,01,03,01,58,-1.30
2017,01,03,01,59,-1.30
2017,01,03,02,00,-1.30
2017,01,03,02,01,-1.30
2017,01,03,02,02,-1.30
2017,01,03,02,03,-1.30
2017,01,03,02,04,-1.20
2017,01,03,02,05,-1.20
2017,01,03,02,06,-1.20
2017,01,03,02,07,-1.20
2017,01,03,02,08,-1.20
2017,01,03,02,09,-1.10
2017,01,03,02,10,-1.20
2017,01,03,02,11,-1.20
2017,01,03,02,12,-1.20
2017,01,03,02,13,-1.20
2017,01,03,02,14,-1.20
2017,01,03,02,15,-1.20
2017,01,03,02,16,-1.20
2017,01,03,02,17,-1.20
2017,01,03,02,18,-1.20
2017,01,03,02,19,-1.20
2017,01,03,02,20,-1.30
2017,01,03,02,21,-1.30
2017,01,03,02,22,-1.30
2017,01,03,02,23,-1.30
2017,01,03,02,24,-1.30
2017,01,03,02,25,-1.30
2017,01,03,02,26,-1.30
2017,01,03,02,27,-1.30
2017,01,03,02,28,-1.40
2017,01,03,02,29,-1.40
2017,01,03,02,30,-1.40
2017,01,03,02,31,-1.40
2017,01,03,02,32,-1.30
2017,01,03,02,33,-1.30
2017,01,03,02,34,-1.30
2017,01,03,02,35,-1.30
2017,01,03,02,36,-1.30
2017,01,03,02,37,-1.40
2017,01,03,02,38,-1.40
2017,01,03,02,39,-1.40
2017,01,03,02,40,-1.40
2017,01,03,02,41,-1.40
2017,01,03,02,42,-1.40
2017,01,03,02,43,-1.30
2017,01,03,02,44,-1.30
2017,01,03,02,45,-1.30
2017,01,03,02,46,-1.20
2017,01,03,02,47,-1.20
2017,01,03,02,48,-1.20
2017,01,03,02,49,-1.20
2017,01,03,02,50,-1.20
2017,01,03,02,51,-1.20
2017,01,03,02,52,-1.20
2017,01,03,02,53,-1.30
2017,01,03,02,54,-1.30
2017,01,03,02,55,-1.30
2017,01,03,02,56,-1.30
2017,01,03,02,57,-1.30
2017,01,03,02,58,-1.30
2017,01,03,02,59,-1.30
2017,01,03,03,00,-1.30
2017,01,03,03,01,-1.30
2017,01,03,03,02,-1.30
2017,01,03,03,03,-1.30
2017,01,03,03,04,-1.30
2017,01,03,03,05,-1.30
2017,01,03,03,06,-1.30
2017,01,03,03,07,-1.30
2017,01,03,03,08,-1.30
2017,01,03,03,09,-1.40
2017,01,03,03,10,-1.40
2017,01,03,03,11,-1.40
2017,01,03,03,12,-1.40
2017,01,03,03,13,-1.40
2017,01,03,03,14,-1.30
2017,01,03,03,15,-1.30
2017,01,03,03,16,-1.30
2017,01,03,03,17,-1.30
2017,01,03,03,18,-1.30
2017,01,03,03,19,-1.20
2017,01,03,03,20,-1.20
2017,01,03,03,21,-1.20
2017,01,03,03,22,-1.20
2017,01,03,03,23,-1.20
2017,01,03,03,24,-1.20
2017,01,03,03,25,-1.20
2017,01,03,03,26,-1.30
2017,01,03,03,27,-1.30
2017,01,03,03,28,-1.30
2017,01,03,03,29,-1.20
2017,01,03,03,30,-1.20
2017,01,03,03,31,-1.20
2017,01,03,03,32,-1.20
2017,01,03,03,33,-1.10
2017,01,03,03,34,-1.10
2017,01,03,03,35,-1.10
2017,01,03,03,36,-1.00
2017,01,03,03,37,-1.00
2017,01,03,03,38,-0.90
2017,01,03,03,39,-0.90
2017,01,03,03,40,-0.90
2017,01,03,03,41,-1.00
2017,01,03,03,42,-1.00
2017,01,03,03,43,-1.00
2017,01,03,03,44,-1.10
2017,01,03,03,45,-1.10
2017,01,03,03,46,-1.10
2017,01,03,03,47,-1.10
2017,01,03,03,48,-1.10
2017,01,03,03,49,-1.00
2017,01,03,03,50,-1.00
2017,01,03,03,51,-0.90
2017,01,03,03,52,-0.90
2017,01,03,03,53,-0.90
2017,01,03,03,54,-0.90
2017,01,03,03,55,-0.90
2017,01,03,03,56,-0.90
2017,01,03,03,57,-0.90
2017,01,03,03,58,-0.90
2017,01,03,03,59,-0.90
2017,01,03,04,00,-0.90
2017,01,03,04,01,-0.90
2017,01,03,04,02,-0.90
2017,01,03,04,03,-0.90
2017,01,03,04,04,-0.90
2017,01,03,04,05,-1.00
2017,01,03,04,06,-1.00
2017,01,03,04,07,-1.00
2017,01,03,04,08,-1.00
2017,01,03,04,09,-1.10
2017,01,03,04,10,-1.10
2017,01,03,04,11,-1.10
2017,01,03,04,12,-1.20
2017,01,03,04,13,-1.20
2017,01,03,04,14,-1.20
2017,01,03,04,15,-1.20
2017,01,03,04,16,-1.20
2017,01,03,04,17,-1.20
2017,01,03,04,18,-1.20
2017,01,03,04,19,-1.20
2017,01,03,04,20,-1.10
2017,01,03,04,21,-1.10
2017,01,03,04,22,-1.10
2017,01,03,04,23,-1.10
2017,01,03,04,24,-1.10
2017,01,03,04,25,-1.10
2017,01,03,04,26,-1.10
2017,01,03,04,27,-1.10
2017,01,03,04,28,-1.10
2017,01,03,04,29,-1.10
2017,01,03,04,30,-1.20
2017,01,03,04,31,-1.20
2017,01,03,04,32,-1.20
2017,01,03,04,33,-1.20
2017,01,03,04,34,-1.20
2017,01,03,04,35,-1.20
2017,01,03,04,36,-1.20
2017,01,03,04,37,-1.30
2017,01,03,04,38,-1.30
2017,01,03,04,39,-1.30
2017,01,03,04,40,-1.30
2017,01,03,04,41,-1.20
2017,01,03,04,42,-1.20
2017,01,03,04,43,-1.10
2017,01,03,04,44,-1.10
2017,01,03,04,45,-1.10
2017,01,03,04,46,-1.00
2017,01,03,04,47,-1.00
2017,01,03,04,48,-1.00
2017,01,03,04,49,-1.00
2017,01,03,04,50,-1.00
2017,01,03,04,51,-1.10
2017,01,03,04,52,-1.10
2017,01,03,04,53,-1.10
2017,01,03,04,54,-1.10
2017,01,03,04,55,-1.10
2017,01,03,04,56,-1.20
2017,01,03,04,57,-1.20
2017,01,03,04,58,-1.20
2017,01,03,04,59,-1.20
2017,01,03,05,00,-1.30
2017,01,03,05,01,-1.30
2017,01,03,05,02,-1.30
2017,01,03,05,03,-1.30
2017,01,03,05,04,-1.30
2017,01,03,05,05,-1.30
2017,01,03,05,06,-1.40
2017,01,03,05,07,-1.40
2017,01,03,05,08,-1.50
2017,01,03,05,09,-1.50
2017,01,03,05,10,-1.60
2017,01,03,05,11,-1.60
2017,01,03,05,12,-1.60
2017,01,03,05,13,-1.60
2017,01,03,05,14,-1.60
2017,01,03,05,15,-1.70
2017,01,03,05,16,-1.70
2017,01,03,05,17,-1.70
2017,01,03,05,18,-1.70
2017,01,03,05,19,-1.80
2017,01,03,05,20,-1.80
2017,01,03,05,21,-1.80
2017,01,03,05,22,-1.90
2017,01,03,05,23,-1.90
2017,01,03,05,24,-2.00
2017,01,03,05,25,-2.00
2017,01,03,05,26,-2.10
2017,01,03,05,27,-2.10
2017,01,03,05,28,-2.20
2017,01,03,05,29,-2.20
2017,01,03,05,30,-2.20
2017,01,03,05,31,-2.20
2017,01,03,05,32,-2.30
2017,01,03,05,33,-2.30
2017,01,03,05,34,-2.30
2017,01,03,05,35,-2.30
2017,01,03,05,36,-2.40
2017,01,03,05,37,-2.50
2017,01,03,05,38,-2.60
2017,01,03,05,39,-2.70
2017,01,03,05,40,-2.70
2017,01,03,05,41,-2.80
2017,01,03,05,42,-2.80
2017,01,03,05,43,-2.90
2017,01,03,05,44,-3.00
2017,01,03,05,45,-3.00
2017,01,03,05,46,-3.10
2017,01,03,05,47,-3.20
2017,01,03,05,48,-3.30
2017,01,03,05,49,-3.30
2017,01,03,05,50,-3.50
2017,01,03,05,51,-3.50
2017,01,03,05,52,-3.60
2017,01,03,05,53,-3.70
2017,01,03,05,54,-3.80
2017,01,03,05,55,-3.80
2017,01,03,05,56,-3.90
2017,01,03,05,57,-4.00
2017,01,03,05,58,-4.00
2017,01,03,05,59,-4.00
2017,01,03,06,00,-4.10
2017,01,03,06,01,-4.10
2017,01,03,06,02,-4.10
2017,01,03,06,03,-4.10
2017,01,03,06,04,-4.10
2017,01,03,06,05,-4.10
2017,01,03,06,06,-4.10
2017,01,03,06,07,-4.20
2017,01,03,06,08,-4.20
2017,01,03,06,09,-4.20
2017,01,03,06,10,-4.20
2017,01,03,06,11,-4.20
2017,01,03,06,12,-4.10
2017,01,03,06,13,-4.10
2017,01,03,06,14,-4.10
2017,01,03,06,15,-4.10
2017,01,03,06,16,-4.20
2017,01,03,06,17,-4.20
2017,01,03,06,18,-4.30
2017,01,03,06,19,-4.30
2017,01,03,06,20,-4.30
2017,01,03,06,21,-4.30
2017,01,03,06,22,-4.30
2017,01,03,06,23,-4.30
2017,01,03,06,24,-4.30
2017,01,03,06,25,-4.30
2017,01,03,06,26,-4.30
2017,01,03,06,27,-4.30
2017,01,03,06,28,-4.30
2017,01,03,06,29,-4.30
2017,01,03,06,30,-4.30
2017,01,03,06,31,-4.30
2017,01,03,06,32,-4.30
2017,01,03,06,33,-4.30
2017,01,03,06,34,-4.30
2017,01,03,06,35,-4.30
2017,01,03,06,36,-4.30
2017,01,03,06,37,-4.30
2017,01,03,06,38,-4.30
2017,01,03,06,39,-4.30
2017,01,03,06,40,-4.30
2017,01,03,06,41,-4.30
2017,01,03,06,42,-4.30
2017,01,03,06,43,-4.30
2017,01,03,06,44,-4.30
2017,01,03,06,45,-4.30
2017,01,03,06,46,-4.30
2017,01,03,06,47,-4.30
2017,01,03,06,48,-4.30
2017,01,03,06,49,-4.40
2017,01,03,06,50,-4.40
2017,01,03,06,51,-4.40
2017,01,03,06,52,-4.40
2017,01,03,06,53,-4.40
2017,01,03,06,54,-4.40
2017,01,03,06,55,-4.40
2017,01,03,06,56,-4.40
2017,01,03,06,57,-4.50
2017,01,03,06,58,-4.50
2017,01,03,06,59,-4.60
2017,01,03,07,00,-4.60
2017,01,03,07,01,-4.60
2017,01,03,07,02,-4.60
2017,01,03,07,03,-4.60
2017,01,03,07,04,-4.60
2017,01,03,07,05,-4.60
2017,01,03,07,06,-4.60
2017,01,03,07,07,-4.60
2017,01,03,07,08,-4.60
2017,01,03,07,09,-4.60
2017,01,03,07,10,-4.70
2017,01,03,07,11,-4.70
2017,01,03,07,12,-4.70
2017,01,03,07,13,-4.80
2017,01,03,07,14,-4.80
2017,01,03,07,15,-4.80
2017,01,03,07,16,-4.80
2017,01,03,07,17,-4.80
2017,01,03,07,18,-4.80
2017,01,03,07,19,-4.80
2017,01,03,07,20,-4.80
2017,01,03,07,21,-4.80
2017,01,03,07,22,-4.90
2017,01,03,07,23,-4.90
2017,01,03,07,24,-4.90
2017,01,03,07,25,-4.90
2017,01,03,07,26,-5.00
2017,01,03,07,27,-5.00
2017,01,03,07,28,-5.00
2017,01,03,07,29,-4.90
2017,01,03,07,30,-4.90
2017,01,03,07,31,-4.90
2017,01,03,07,32,-4.90
2017,01,03,07,33,-4.90
2017,01,03,07,34,-4.90
2017,01,03,07,35,-4.90
2017,01,03,07,36,-4.90
2017,01,03,07,37,-5.00
2017,01,03,07,38,-5.00
2017,01,03,07,39,-5.00
2017,01,03,07,40,-4.90
2017,01,03,07,41,-4.90
2017,01,03,07,42,-4.90
2017,01,03,07,43,-4.90
2017,01,03,07,44,-4.90
2017,01,03,07,45,-4.90
2017,01,03,07,46,-4.90
2017,01,03,07,47,-4.90
2017,01,03,07,48,-5.00
2017,01,03,07,49,-5.00
2017,01,03,07,50,-5.00
2017,01,03,07,51,-5.00
2017,01,03,07,52,-5.00
2017,01,03,07,53,-5.00
2017,01,03,07,54,-5.00
2017,01,03,07,55,-5.10
2017,01,03,07,56,-5.10
2017,01,03,07,57,-5.20
2017,01,03,07,58,-5.30
2017,01,03,07,59,-5.30
2017,01,03,08,00,-5.30
2017,01,03,08,01,-5.40
2017,01,03,08,02,-5.40
2017,01,03,08,03,-5.40
2017,01,03,08,04,-5.40
2017,01,03,08,05,-5.30
2017,01,03,08,06,-5.30
2017,01,03,08,07,-5.30
2017,01,03,08,08,-5.30
2017,01,03,08,09,-5.20
2017,01,03,08,10,-5.20
2017,01,03,08,11,-5.20
2017,01,03,08,12,-5.20
2017,01,03,08,13,-5.20
2017,01,03,08,14,-5.10
2017,01,03,08,15,-5.10
2017,01,03,08,16,-5.10
2017,01,03,08,17,-5.10
2017,01,03,08,18,-5.10
2017,01,03,08,19,-5.10
2017,01,03,08,20,-5.20
2017,01,03,08,21,-5.20
2017,01,03,08,22,-5.20
2017,01,03,08,23,-5.20
2017,01,03,08,24,-5.20
2017,01,03,08,25,-5.20
2017,01,03,08,26,-5.20
2017,01,03,08,27,-5.30
2017,01,03,08,28,-5.30
2017,01,03,08,29,-5.30
2017,01,03,08,30,-5.30
2017,01,03,08,31,-5.30
2017,01,03,08,32,-5.30
2017,01,03,08,33,-5.20
2017,01,03,08,34,-5.20
2017,01,03,08,35,-5.20
2017,01,03,08,36,-5.20
2017,01,03,08,37,-5.20
2017,01,03,08,38,-5.20
2017,01,03,08,39,-5.20
2017,01,03,08,40,-5.20
2017,01,03,08,41,-5.20
2017,01,03,08,42,-5.20
2017,01,03,08,43,-5.20
2017,01,03,08,44,-5.30
2017,01,03,08,45,-5.30
2017,01,03,08,46,-5.30
2017,01,03,08,47,-5.30
2017,01,03,08,48,-5.30
2017,01,03,08,49,-5.30
2017,01,03,08,50,-5.30
2017,01,03,08,51,-5.30
2017,01,03,08,52,-5.20
2017,01,03,08,53,-5.20
2017,01,03,08,54,-5.10
2017,01,03,08,55,-5.10
2017,01,03,08,56,-5.10
2017,01,03,08,57,-5.10
2017,01,03,08,58,-5.00
2017,01,03,08,59,-5.00
2017,01,03,09,00,-4.90
2017,01,03,09,01,-4.90
2017,01,03,09,02,-4.90
2017,01,03,09,03,-4.80
2017,01,03,09,04,-4.80
2017,01,03,09,05,-4.80
2017,01,03,09,06,-4.80
2017,01,03,09,07,-4.80
2017,01,03,09,08,-4.80
2017,01,03,09,09,-4.80
2017,01,03,09,10,-4.80
2017,01,03,09,11,-4.80
2017,01,03,09,12,-4.80
2017,01,03,09,13,-4.80
2017,01,03,09,14,-4.80
2017,01,03,09,15,-4.90
2017,01,03,09,16,-4.90
2017,01,03,09,17,-4.90
2017,01,03,09,18,-4.80
2017,01,03,09,19,-4.80
2017,01,03,09,20,-4.80
2017,01,03,09,21,-4.80
2017,01,03,09,22,-4.90
2017,01,03,09,23,-4.90
2017,01,03,09,24,-4.90
2017,01,03,09,25,-4.90
2017,01,03,09,26,-4.90
2017,01,03,09,27,-4.90
2017,01,03,09,28,-4.90
2017,01,03,09,29,-4.90
2017,01,03,09,30,-4.90
2017,01,03,09,31,-4.90
2017,01,03,09,32,-4.90
2017,01,03,09,33,-4.80
2017,01,03,09,34,-4.80
2017,01,03,09,35,-4.80
2017,01,03,09,36,-4.80
2017,01,03,09,37,-4.70
2017,01,03,09,38,-4.70
2017,01,03,09,39,-4.60
2017,01,03,09,40,-4.60
2017,01,03,09,41,-4.60
2017,01,03,09,42,-4.60
2017,01,03,09,43,-4.60
2017,01,03,09,44,-4.60
2017,01,03,09,45,-4.60
2017,01,03,09,46,-4.60
2017,01,03,09,47,-4.60
2017,01,03,09,48,-4.60
2017,01,03,09,49,-4.60
2017,01,03,09,50,-4.50
2017,01,03,09,51,-4.40
2017,01,03,09,52,-4.40
2017,01,03,09,53,-4.30
2017,01,03,09,54,-4.30
2017,01,03,09,55,-4.20
2017,01,03,09,56,-4.20
2017,01,03,09,57,-4.20
2017,01,03,09,58,-4.10
2017,01,03,09,59,-4.10
2017,01,03,10,00,-4.00
2017,01,03,10,01,-4.00
2017,01,03,10,02,-3.90
2017,01,03,10,03,-3.90
2017,01,03,10,04,-3.90
2017,01,03,10,05,-3.90
2017,01,03,10,06,-3.90
2017,01,03,10,07,-3.80
2017,01,03,10,08,-3.80
2017,01,03,10,09,-3.80
2017,01,03,10,10,-3.80
2017,01,03,10,11,-3.80
2017,01,03,10,12,-3.80
2017,01,03,10,13,-3.70
2017,01,03,10,14,-3.70
2017,01,03,10,15,-3.70
2017,01,03,10,16,-3.70
2017,01,03,10,17,-3.60
2017,01,03,10,18,-3.60
2017,01,03,10,19,-3.50
2017,01,03,10,20,-3.40
2017,01,03,10,21,-3.40
2017,01,03,10,22,-3.40
2017,01,03,10,23,-3.40
2017,01,03,10,24,-3.40
2017,01,03,10,25,-3.40
2017,01,03,10,26,-3.40
2017,01,03,10,27,-3.40
2017,01,03,10,28,-3.50
2017,01,03,10,29,-3.50
2017,01,03,10,30,-3.50
2017,01,03,10,31,-3.50
2017,01,03,10,32,-3.50
2017,01,03,10,33,-3.50
2017,01,03,10,34,-3.50
2017,01,03,10,35,-3.60
2017,01,03,10,36,-3.60
2017,01,03,10,37,-3.50
2017,01,03,10,38,-3.50
2017,01,03,10,39,-3.50
2017,01,03,10,40,-3.50
2017,01,03,10,41,-3.60
2017,01,03,10,42,-3.60
2017,01,03,10,43,-3.60
2017,01,03,10,44,-3.60
2017,01,03,10,45,-3.60
2017,01,03,10,46,-3.60
2017,01,03,10,47,-3.50
2017,01,03,10,48,-3.50
2017,01,03,10,49,-3.50
2017,01,03,10,50,-3.50
2017,01,03,10,51,-3.40
2017,01,03,10,52,-3.40
2017,01,03,10,53,-3.40
2017,01,03,10,54,-3.40
2017,01,03,10,55,-3.40
2017,01,03,10,56,-3.30
2017,01,03,10,57,-3.30
2017,01,03,10,58,-3.30
2017,01,03,10,59,-3.30
2017,01,03,11,00,-3.30
2017,01,03,11,01,-3.20
2017,01,03,11,02,-3.20
2017,01,03,11,03,-3.20
2017,01,03,11,04,-3.20
2017,01,03,11,05,-3.20
2017,01,03,11,06,-3.20
2017,01,03,11,07,-3.20
2017,01,03,11,08,-3.20
2017,01,03,11,09,-3.10
2017,01,03,11,10,-3.10
2017,01,03,11,11,-3.10
2017,01,03,11,12,-3.10
2017,01,03,11,13,-3.10
2017,01,03,11,14,-3.10
2017,01,03,11,15,-3.10
2017,01,03,11,16,-3.00
2017,01,03,11,17,-3.00
2017,01,03,11,18,-2.90
2017,01,03,11,19,-2.90
2017,01,03,11,20,-2.80
2017,01,03,11,21,-2.80
2017,01,03,11,22,-2.80
2017,01,03,11,23,-2.80
2017,01,03,11,24,-2.80
2017,01,03,11,25,-2.80
2017,01,03,11,26,-2.80
2017,01,03,11,27,-2.80
2017,01,03,11,28,-2.80
2017,01,03,11,29,-2.80
2017,01,03,11,30,-2.80
2017,01,03,11,31,-2.80
2017,01,03,11,32,-2.70
2017,01,03,11,33,-2.70
2017,01,03,11,34,-2.60
2017,01,03,11,35,-2.50
2017,01,03,11,36,-2.40
2017,01,03,11,37,-2.20
2017,01,03,11,38,-2.10
2017,01,03,11,39,-2.00
2017,01,03,11,40,-1.80
2017,01,03,11,41,-1.70
2017,01,03,11,42,-1.60
2017,01,03,11,43,-1.40
2017,01,03,11,44,-1.30
2017,01,03,11,45,-1.20
2017,01,03,11,46,-1.10
2017,01,03,11,47,-0.90
2017,01,03,11,48,-0.80
2017,01,03,11,49,-0.70
2017,01,03,11,50,-0.50
2017,01,03,11,51,-0.40
2017,01,03,11,52,-0.30
2017,01,03,11,53,-0.20
2017,01,03,11,54,-0.10
2017,01,03,11,55,0.00
2017,01,03,11,56,0.00
2017,01,03,11,57,0.10
2017,01,03,11,58,0.20
2017,01,03,11,59,0.20
2017,01,03,12,00,0.30
2017,01,03,12,01,0.40
2017,01,03,12,02,0.40
2017,01,03,12,03,0.50
2017,01,03,12,04,0.60
2017,01,03,12,05,0.60
2017,01,03,12,06,0.70
2017,01,03,12,07,0.80
2017,01,03,12,08,0.80
2017,01,03,12,09,0.90
2017,01,03,12,10,1.00
2017,01,03,12,11,1.00
2017,01,03,12,12,1.10
2017,01,03,12,13,1.10
2017,01,03,12,14,1.10
2017,01,03,12,15,1.10
2017,01,03,12,16,1.10
2017,01,03,12,17,1.10
2017,01,03,12,18,1.10
2017,01,03,12,19,1.10
2017,01,03,12,20,1.10
2017,01,03,12,21,1.10
2017,01,03,12,22,1.10
2017,01,03,12,23,1.00
2017,01,03,12,24,0.90
2017,01,03,12,25,0.80
2017,01,03,12,26,0.80
2017,01,03,12,27,0.70
2017,01,03,12,28,0.70
2017,01,03,12,29,0.70
2017,01,03,12,30,0.70
2017,01,03,12,31,0.70
2017,01,03,12,32,0.70
2017,01,03,12,33,0.70
2017,01,03,12,34,0.70
2017,01,03,12,35,0.70
2017,01,03,12,36,0.80
2017,01,03,12,37,0.80
2017,01,03,12,38,0.80
2017,01,03,12,39,0.90
2017,01,03,12,40,0.90
2017,01,03,12,41,1.00
2017,01,03,12,42,1.00
2017,01,03,12,43,1.10
2017,01,03,12,44,1.20
2017,01,03,12,45,1.30
2017,01,03,12,46,1.30
2017,01,03,12,47,1.40
2017,01,03,12,48,1.50
2017,01,03,12,49,1.60
2017,01,03,12,50,1.70
2017,01,03,12,51,1.80
2017,01,03,12,52,1.90
2017,01,03,12,53,2.00
2017,01,03,12,54,2.10
2017,01,03,12,55,2.10
2017,01,03,12,56,2.10
2017,01,03,12,57,2.10
2017,01,03,12,58,2.10
2017,01,03,12,59,2.20
2017,01,03,13,00,2.20
2017,01,03,13,01,2.20
2017,01,03,13,02,2.20
2017,01,03,13,03,2.20
2017,01,03,13,04,2.30
2017,01,03,13,05,2.30
2017,01,03,13,06,2.30
2017,01,03,13,07,2.30
2017,01,03,13,08,2.30
2017,01,03,13,09,2.30
2017,01,03,13,10,2.40
2017,01,03,13,11,2.40
2017,01,03,13,12,2.50
2017,01,03,13,13,2.60
2017,01,03,13,14,2.70
2017,01,03,13,15,2.70
2017,01,03,13,16,2.80
2017,01,03,13,17,2.80
2017,01,03,13,18,2.90
2017,01,03,13,19,2.90
2017,01,03,13,20,3.00
2017,01,03,13,21,3.00
2017,01,03,13,22,3.00
2017,01,03,13,23,3.00
2017,01,03,13,24,3.00
2017,01,03,13,25,3.00
2017,01,03,13,26,2.90
2017,01,03,13,27,3.00
2017,01,03,13,28,3.00
2017,01,03,13,29,3.10
2017,01,03,13,30,3.10
2017,01,03,13,31,3.10
2017,01,03,13,32,3.10
2017,01,03,13,33,3.10
2017,01,03,13,34,3.10
2017,01,03,13,35,3.10
2017,01,03,13,36,3.00
2017,01,03,13,37,3.00
2017,01,03,13,38,3.00
2017,01,03,13,39,3.00
2017,01,03,13,40,2.90
2017,01,03,13,41,2.90
2017,01,03,13,42,2.90
2017,01,03,13,43,2.90
2017,01,03,13,44,2.90
2017,01,03,13,45,2.90
2017,01,03,13,46,2.90
2017,01,03,13,47,2.90
2017,01,03,13,48,2.90
2017,01,03,13,49,2.90
2017,01,03,13,50,2.90
2017,01,03,13,51,2.90
2017,01,03,13,52,2.90
2017,01,03,13,53,2.90
2017,01,03,13,54,3.00
2017,01,03,13,55,3.00
2017,01,03,13,56,3.10
2017,01,03,13,57,3.10
2017,01,03,13,58,3.20
2017,01,03,13,59,3.30
2017,01,03,14,00,3.40
2017,01,03,14,01,3.40
2017,01,03,14,02,3.50
2017,01,03,14,03,3.50
2017,01,03,14,04,3.50
2017,01,03,14,05,3.40
2017,01,03,14,06,3.40
2017,01,03,14,07,3.30
2017,01,03,14,08,3.30
2017,01,03,14,09,3.30
2017,01,03,14,10,3.40
2017,01,03,14,11,3.40
2017,01,03,14,12,3.40
2017,01,03,14,13,3.40
2017,01,03,14,14,3.40
2017,01,03,14,15,3.40
2017,01,03,14,16,3.50
2017,01,03,14,17,3.60
2017,01,03,14,18,3.60
2017,01,03,14,19,3.70
2017,01,03,14,20,3.80
2017,01,03,14,21,3.80
2017,01,03,14,22,3.80
2017,01,03,14,23,3.90
2017,01,03,14,24,3.80
2017,01,03,14,25,3.80
2017,01,03,14,26,3.80
2017,01,03,14,27,3.80
2017,01,03,14,28,3.80
2017,01,03,14,29,3.80
2017,01,03,14,30,3.70
2017,01,03,14,31,3.70
2017,01,03,14,32,3.60
2017,01,03,14,33,3.60
2017,01,03,14,34,3.50
2017,01,03,14,35,3.40
2017,01,03,14,36,3.40
2017,01,03,14,37,3.30
2017,01,03,14,38,3.30
2017,01,03,14,39,3.30
2017,01,03,14,40,3.30
2017,01,03,14,41,3.30
2017,01,03,14,42,3.30
2017,01,03,14,43,3.30
2017,01,03,14,44,3.30
2017,01,03,14,45,3.30
2017,01,03,14,46,3.30
2017,01,03,14,47,3.30
2017,01,03,14,48,3.30
2017,01,03,14,49,3.30
2017,01,03,14,50,3.30
2017,01,03,14,51,3.30
2017,01,03,14,52,3.20
2017,01,03,14,53,3.20
2017,01,03,14,54,3.20
2017,01,03,14,55,3.20
2017,01,03,14,56,3.20
2017,01,03,14,57,3.20
2017,01,03,14,58,3.20
2017,01,03,14,59,3.20
2017,01,03,15,00,3.20
2017,01,03,15,01,3.30
2017,01,03,15,02,3.30
2017,01,03,15,03,3.30
2017,01,03,15,04,3.30
2017,01,03,15,05,3.30
2017,01,03,15,06,3.20
2017,01,03,15,07,3.20
2017,01,03,15,08,3.20
2017,01,03,15,09,3.10
2017,01,03,15,10,3.10
2017,01,03,15,11,3.00
2017,01,03,15,12,2.90
2017,01,03,15,13,2.80
2017,01,03,15,14,2.70
2017,01,03,15,15,2.70
2017,01,03,15,16,2.60
2017,01,03,15,17,2.60
2017,01,03,15,18,2.50
2017,01,03,15,19,2.40
2017,01,03,15,20,2.40
2017,01,03,15,21,2.40
2017,01,03,15,22,2.30
2017,01,03,15,23,2.20
2017,01,03,15,24,2.20
2017,01,03,15,25,2.10
2017,01,03,15,26,2.00
2017,01,03,15,27,1.90
2017,01,03,15,28,1.80
2017,01,03,15,29,1.80
2017,01,03,15,30,1.70
2017,01,03,15,31,1.70
2017,01,03,15,32,1.60
2017,01,03,15,33,1.50
2017,01,03,15,34,1.50
2017,01,03,15,35,1.40
2017,01,03,15,36,1.30
2017,01,03,15,37,1.30
2017,01,03,15,38,1.30
2017,01,03,15,39,1.30
2017,01,03,15,40,1.20
2017,01,03,15,41,1.20
2017,01,03,15,42,1.10
2017,01,03,15,43,1.10
2017,01,03,15,44,1.10
2017,01,03,15,45,1.10
2017,01,03,15,46,1.10
2017,01,03,15,47,1.10
2017,01,03,15,48,1.00
2017,01,03,15,49,1.00
2017,01,03,15,50,1.00
2017,01,03,15,51,0.90
2017,01,03,15,52,0.90
2017,01,03,15,53,0.90
2017,01,03,15,54,0.80
2017,01,03,15,55,0.80
2017,01,03,15,56,0.80
2017,01,03,15,57,0.80
2017,01,03,15,58,0.80
2017,01,03,15,59,0.70
2017,01,03,16,00,0.70
2017,01,03,16,01,0.70
2017,01,03,16,02,0.70
2017,01,03,16,03,0.70
2017,01,03,16,04,0.70
2017,01,03,16,05,0.70
2017,01,03,16,06,0.60
2017,01,03,16,07,0.60
2017,01,03,16,08,0.60
2017,01,03,16,09,0.60
2017,01,03,16,10,0.60
2017,01,03,16,11,0.50
2017,01,03,16,12,0.50
2017,01,03,16,13,0.50
2017,01,03,16,14,0.50
2017,01,03,16,15,0.40
2017,01,03,16,16,0.40
2017,01,03,16,17,0.40
2017,01,03,16,18,0.40
2017,01,03,16,19,0.40
2017,01,03,16,20,0.40
2017,01,03,16,21,0.30
2017,01,03,16,22,0.30
2017,01,03,16,23,0.30
2017,01,03,16,24,0.30
2017,01,03,16,25,0.30
2017,01,03,16,26,0.30
2017,01,03,16,27,0.30
2017,01,03,16,28,0.30
2017,01,03,16,29,0.30
2017,01,03,16,30,0.30
2017,01,03,16,31,0.30
2017,01,03,16,32,0.30
2017,01,03,16,33,0.20
2017,01,03,16,34,0.20
2017,01,03,16,35,0.20
2017,01,03,16,36,0.20
2017,01,03,16,37,0.20
2017,01,03,16,38,0.20
2017,01,03,16,39,0.20
2017,01,03,16,40,0.20
2017,01,03,16,41,0.20
2017,01,03,16,42,0.20
2017,01,03,16,43,0.20
2017,01,03,16,44,0.10
2017,01,03,16,45,0.10
2017,01,03,16,46,0.10
2017,01,03,16,47,0.10
2017,01,03,16,48,0.00
2017,01,03,16,49,0.00
2017,01,03,16,50,0.00
2017,01,03,16,51,-0.10
2017,01,03,16,52,-0.10
2017,01,03,16,53,-0.10
2017,01,03,16,54,-0.10
2017,01,03,16,55,-0.20
2017,01,03,16,56,-0.20
2017,01,03,16,57,-0.20
2017,01,03,16,58,-0.20
2017,01,03,16,59,-0.30
2017,01,03,17,00,-0.30
2017,01,03,17,01,-0.30
2017,01,03,17,02,-0.30
2017,01,03,17,03,-0.30
2017,01,03,17,04,-0.40
2017,01,03,17,05,-0.40
2017,01,03,17,06,-0.40
2017,01,03,17,07,-0.50
2017,01,03,17,08,-0.50
2017,01,03,17,09,-0.50
2017,01,03,17,10,-0.60
2017,01,03,17,11,-0.60
2017,01,03,17,12,-0.60
2017,01,03,17,13,-0.60
2017,01,03,17,14,-0.70
2017,01,03,17,15,-0.70
2017,01,03,17,16,-0.70
2017,01,03,17,17,-0.70
2017,01,03,17,18,-0.80
2017,01,03,17,19,-0.80
2017,01,03,17,20,-0.80
2017,01,03,17,21,-0.80
2017,01,03,17,22,-0.80
2017,01,03,17,23,-0.80
2017,01,03,17,24,-0.80
2017,01,03,17,25,-0.80
2017,01,03,17,26,-0.90
2017,01,03,17,27,-0.90
2017,01,03,17,28,-1.00
2017,01,03,17,29,-1.00
2017,01,03,17,30,-1.10
2017,01,03,17,31,-1.10
2017,01,03,17,32,-1.10